Wetbulb
63.11 65.55 67.81 67.61 67.13 67.11 67.17 67.40 67.44 67.55 67.50 67.13 67.13 67.27 67.58 68.02 67.70 67.51 67.26 66.72 66.27 65.60 64.80 64.14 63.12 62.12 61.09 60.61 61.26 62.17 58.15 59.48
63.83 65.40 64.68 65.13 65.84 66.25 66.22 66.49 66.45 66.36 66.13 65.73 65.24 65.55 66.24 66.27 65.97 66.18 66.08 65.69 65.05 64.41 63.76 62.90 61.95 60.43 59.80 59.39 60.74 60.95 57.35 58.55
64.61 63.41 63.32 63.49 63.84 65.60 66.05 66.16 65.53 65.11 64.81 64.28 63.07 63.14 63.52 63.80 64.74 65.12 65.20 64.85 64.28 63.33 62.49 61.38 59.82 58.97 59.05 58.68 58.98 54.90 56.49 57.97
60.88 60.24 60.19 60.89 62.46 63.42 64.33 65.02 63.99 63.57 62.62 62.60 61.43 61.79 62.52 63.23 63.63 63.92 64.07 63.78 63.54 62.75 61.88 60.67 59.35 54.52 54.39 57.78 53.40 53.72 55.47 57.15
59.21 58.94 58.54 57.98 57.93 58.57 59.48 62.29 62.09 62.36 62.92 61.94 62.91 62.24 61.93 61.36 60.26 59.95 59.30 60.39 57.81 58.93 58.42 56.98 58.07 56.55 54.73 53.02 53.26 52.73 52.48 52.86
57.46 58.46 59.31 58.94 59.16 60.66 61.60 60.91 61.01 60.91 62.29 62.74 63.31 61.96 61.82 60.79 59.81 59.51 58.82 58.61 56.59 56.73 58.31 57.71 55.42 54.76 53.26 52.58 52.13 51.49 50.57 52.67
57.66 58.71 58.98 59.69 59.07 59.54 60.34 60.68 59.94 60.93 61.48 62.98 63.20 62.53 61.56 61.36 60.67 59.81 58.78 58.74 58.65 58.68 56.98 55.64 54.70 53.63 52.78 51.96 51.43 51.13 51.49 53.92
57.55 57.53 57.67 57.14 56.49 57.27 58.20 59.18 60.15 61.41 62.17 62.18 63.52 63.40 62.67 62.25 61.54 60.59 59.93 59.55 59.36 58.32 56.48 55.30 54.54 52.66 51.37 51.01 50.60 50.90 51.20 52.94
55.90 55.81 56.51 55.79 55.71 56.38 57.54 58.59 59.06 59.22 60.88 62.43 63.16 63.36 62.88 62.63 62.10 60.99 59.92 59.67 59.54 58.35 56.72 55.89 53.28 52.73 50.79 50.64 50.44 50.41 50.60 50.29
56.80 56.45 55.41 55.72 56.30 56.63 57.38 58.90 59.86 60.53 61.39 61.91 63.35 63.46 63.22 62.56 61.41 60.25 60.04 59.59 58.16 56.49 55.29 53.79 52.59 50.84 49.68 49.16 49.65 50.13 49.82 49.24
56.40 56.23 56.00 56.31 57.75 57.83 59.22 60.49 60.72 61.51 61.64 62.25 63.00 63.45 63.60 62.25 60.41 59.47 59.64 58.75 57.23 56.63 55.41 53.83 51.10 50.70 51.17 50.30 49.59 49.23 49.20 50.85
56.73 56.79 57.55 58.17 58.55 60.62 60.75 61.20 60.93 61.47 62.65 63.12 63.88 64.08 63.96 62.78 61.13 60.13 59.36 57.97 56.48 55.26 54.43 53.66 51.77 51.46 52.17 50.91 49.83 49.58 49.62 48.69
56.73 57.14 57.89 59.83 60.02 59.32 59.43 59.12 59.82 60.32 61.71 63.34 63.93 63.90 64.08 61.79 61.94 60.62 58.48 57.13 55.85 56.32 54.10 51.93 50.18 50.82 49.61 49.44 49.75 49.66 48.72 48.34
57.16 58.12 61.38 62.11 61.99 61.52 60.55 59.92 60.11 60.58 62.39 63.50 64.08 63.90 63.83 62.89 61.86 59.36 58.17 57.32 57.40 54.76 53.10 50.85 51.34 51.85 48.18 47.65 44.97 46.79 48.87 49.26
59.55 61.13 62.34 62.70 62.85 62.28 60.89 60.31 60.01 59.56 62.57 62.94 63.34 63.90 63.53 62.34 61.69 59.70 58.40 58.29 56.05 54.64 53.60 52.00 49.90 49.94 49.29 46.70 42.73 42.21 42.78 46.92
61.28 62.13 62.98 63.39 63.24 61.56 59.67 58.36 57.24 58.94 61.88 62.89 62.74 63.02 63.01 62.62 61.64 60.41 59.29 58.31 56.55 54.89 55.19 52.48 51.90 48.53 48.15 48.75 47.77 45.72 41.74 39.69
62.22 62.69 62.67 62.24 63.09 62.65 60.83 59.33 59.11 59.80 61.03 61.95 61.75 62.03 62.17 61.88 60.37 59.30 58.97 58.31 57.14 55.40 53.82 53.72 52.33 47.69 47.27 46.17 45.23 43.98 45.57 41.19
63.16 63.11 62.77 63.06 63.52 62.52 62.46 59.94 60.42 60.14 61.56 60.97 61.04 60.95 60.39 60.16 59.49 58.59 57.82 57.50 55.66 55.01 54.40 53.81 48.67 47.11 46.20 45.12 44.97 43.97 44.18 41.60
62.93 62.96 62.11 63.17 63.78 62.98 63.03 62.95 61.12 60.79 61.52 60.80 60.51 59.28 58.36 58.67 57.85 57.16 57.40 56.46 55.35 54.72 53.89 50.91 47.07 44.93 44.27 44.83 46.35 45.20 46.39 42.76
62.33 62.50 62.12 62.95 63.55 63.69 64.02 63.52 63.17 62.31 62.45 61.63 60.82 59.65 58.10 57.26 57.02 56.54 56.28 55.30 54.61 53.63 49.59 48.37 46.61 46.56 44.75 45.15 45.11 45.72 45.26 43.16
MSLP
1010.84 1012.24 1011.31 1011.70 1012.51 1013.62 1014.37 1014.92 1015.53 1016.08 1016.70 1017.21 1017.65 1018.06 1018.44 1018.78 1019.28 1019.81 1020.19 1020.82 1021.27 1021.60 1022.13 1022.19 1022.29 1022.43 1022.28 1022.39 1022.21 1021.86 1021.96 1022.20
1011.35 1012.26 1011.87 1010.67 1012.95 1014.23 1015.19 1015.74 1016.34 1016.79 1017.15 1017.72 1018.42 1018.62 1018.86 1019.48 1019.90 1020.16 1020.63 1021.00 1021.51 1021.99 1022.30 1022.44 1022.62 1022.69 1022.66 1022.85 1022.63 1022.07 1021.99 1022.71
1012.41 1012.89 1012.82 1012.96 1014.12 1014.90 1015.95 1016.54 1017.12 1017.82 1018.04 1018.27 1018.74 1019.16 1019.47 1020.03 1020.52 1020.81 1021.03 1021.20 1021.83 1022.12 1022.36 1022.53 1022.82 1022.91 1022.84 1022.93 1022.73 1022.29 1022.58 1023.24
1013.24 1013.47 1014.07 1014.32 1015.03 1015.59 1016.47 1017.10 1017.16 1018.22 1018.48 1018.59 1019.10 1019.31 1019.79 1020.44 1021.06 1021.48 1021.23 1021.72 1022.08 1022.19 1022.40 1022.59 1022.88 1022.97 1022.86 1022.88 1022.83 1022.66 1023.19 1023.84
1013.45 1013.96 1015.05 1015.07 1015.61 1016.70 1017.33 1017.49 1017.92 1018.71 1018.65 1018.79 1019.39 1019.68 1020.28 1020.80 1021.46 1021.82 1021.91 1022.00 1022.09 1022.36 1022.80 1022.93 1023.00 1022.88 1023.09 1023.26 1023.23 1023.25 1023.64 1024.06
1014.72 1015.02 1015.64 1015.43 1016.15 1017.47 1018.20 1018.20 1018.54 1018.80 1018.53 1019.03 1019.49 1019.93 1020.46 1021.08 1021.52 1021.81 1021.90 1021.78 1022.22 1022.30 1022.65 1023.01 1023.10 1023.31 1023.45 1023.55 1023.81 1023.68 1023.79 1024.50
1015.42 1015.88 1016.06 1016.23 1017.02 1017.65 1017.81 1018.11 1018.53 1018.59 1018.82 1018.89 1019.56 1020.38 1020.43 1021.12 1021.39 1021.44 1021.59 1021.81 1022.03 1022.07 1022.83 1023.20 1023.38 1023.50 1023.54 1023.74 1024.07 1023.98 1023.86 1024.58
1015.98 1016.44 1016.82 1016.87 1017.01 1018.02 1017.84 1018.19 1018.70 1018.66 1018.85 1020.03 1020.11 1020.05 1020.63 1020.96 1021.10 1021.26 1021.35 1021.55 1021.72 1022.17 1022.80 1023.04 1023.33 1023.54 1023.81 1024.06 1024.23 1023.93 1024.03 1024.46
1016.62 1017.08 1017.40 1017.69 1018.06 1018.56 1018.84 1018.79 1018.74 1019.28 1020.05 1020.16 1019.86 1020.00 1020.55 1020.56 1020.82 1021.05 1021.14 1021.46 1021.67 1022.09 1022.48 1022.74 1023.17 1023.30 1023.79 1024.08 1024.21 1023.95 1024.17 1024.33
1016.76 1017.63 1018.05 1018.10 1018.14 1018.65 1019.10 1019.04 1019.40 1019.54 1019.49 1019.41 1019.69 1020.18 1020.42 1020.55 1020.82 1020.98 1021.19 1021.63 1021.61 1022.15 1022.53 1022.86 1023.06 1023.49 1023.91 1023.85 1023.88 1023.99 1024.28 1024.55
1016.94 1017.52 1017.80 1017.94 1018.14 1018.27 1018.23 1018.19 1018.37 1018.51 1018.76 1019.14 1019.64 1020.02 1020.47 1020.39 1020.73 1021.00 1021.26 1021.47 1021.85 1022.17 1022.59 1022.70 1023.11 1023.37 1023.52 1023.72 1023.85 1024.01 1024.21 1024.31
1016.76 1017.04 1017.37 1017.50 1017.88 1018.05 1018.06 1017.89 1017.81 1017.91 1018.25 1018.62 1019.25 1019.85 1020.21 1020.53 1020.67 1020.91 1021.20 1021.47 1021.83 1022.13 1022.46 1022.64 1022.90 1023.22 1023.05 1023.39 1023.85 1023.83 1023.95 1024.29
1016.29 1016.66 1016.87 1017.24 1017.47 1017.66 1017.33 1017.37 1017.44 1017.72 1017.84 1018.26 1018.86 1019.38 1019.83 1020.19 1020.36 1020.46 1020.83 1021.34 1021.71 1022.00 1022.39 1022.70 1023.04 1023.08 1023.54 1023.62 1023.62 1023.85 1024.14 1024.38
1015.46 1015.51 1015.88 1016.27 1016.56 1016.54 1016.54 1016.84 1017.16 1017.15 1017.23 1017.84 1018.46 1019.05 1019.37 1019.78 1019.89 1020.06 1020.65 1021.06 1021.36 1021.58 1022.18 1022.82 1023.12 1023.18 1023.85 1023.68 1024.02 1024.42 1024.24 1024.25
1013.65 1014.06 1014.58 1015.05 1015.24 1015.29 1015.57 1016.02 1016.19 1016.41 1016.84 1017.53 1017.97 1018.51 1018.79 1019.20 1019.50 1019.67 1020.18 1020.55 1020.91 1021.33 1021.89 1022.39 1023.04 1023.16 1023.52 1023.90 1024.20 1024.25 1024.19 1023.78
1012.54 1012.49 1013.08 1013.61 1013.94 1014.10 1014.68 1015.09 1015.43 1015.67 1016.35 1017.00 1017.61 1017.87 1018.31 1018.51 1018.82 1019.15 1019.56 1020.06 1020.53 1020.85 1021.17 1021.80 1022.34 1022.96 1023.49 1023.68 1023.95 1024.35 1024.71 1024.74
1011.37 1011.65 1012.01 1012.43 1012.91 1013.33 1013.93 1014.61 1015.10 1015.31 1015.70 1016.52 1017.26 1017.53 1018.04 1018.29 1018.66 1018.82 1019.12 1019.28 1019.84 1020.59 1020.85 1021.27 1021.85 1022.64 1023.08 1023.69 1024.18 1024.39 1024.61 1024.89
1010.49 1010.94 1011.25 1011.56 1012.09 1012.65 1013.38 1013.87 1014.41 1014.72 1015.33 1016.07 1016.54 1016.96 1017.56 1018.10 1018.53 1018.97 1019.06 1019.39 1019.73 1020.23 1020.79 1020.98 1021.60 1022.35 1022.91 1023.40 1023.98 1024.37 1024.20 1024.33
1009.41 1010.01 1010.38 1010.72 1011.40 1011.93 1012.45 1013.13 1013.71 1014.16 1014.58 1015.23 1016.02 1016.60 1017.23 1017.69 1018.09 1018.88 1018.90 1019.02 1019.37 1020.09 1020.34 1021.52 1021.55 1022.35 1023.09 1023.69 1023.89 1024.16 1024.27 1024.15
1008.52 1009.09 1009.67 1010.05 1010.54 1011.13 1011.78 1012.43 1013.05 1013.57 1013.87 1014.41 1014.98 1015.94 1016.44 1017.22 1017.98 1018.51 1018.83 1019.05 1019.48 1019.65 1021.44 1021.15 1021.91 1022.26 1023.08 1023.52 1023.89 1024.16 1024.32 1023.86
Wind_Speed
3 4 4 23 23 19 18 19 18 18 18 19 20 20 20 20 21 20 20 18 18 17 14 13 12 9 8 10 12 13 6 10
8 10 15 17 15 21 18 17 17 19 20 19 17 18 20 19 18 19 18 19 17 16 14 13 11 8 4 7 10 12 7 13
10 9 13 18 12 16 18 19 19 17 17 19 12 9 13 12 14 17 18 18 15 15 14 12 10 5 3 4 7 4 8 9
12 14 12 14 13 11 8 9 8 8 8 7 7 7 10 11 12 14 17 15 13 12 11 11 8 3 2 2 4 5 7 8
13 15 10 14 9 8 5 5 3 4 5 6 6 8 9 7 5 5 5 9 5 5 5 3 2 4 5 5 5 4 5 5
11 14 14 12 11 9 6 5 3 3 4 7 5 4 6 6 4 5 4 4 5 5 3 4 5 6 4 4 4 5 4 5
14 8 6 10 9 6 6 5 4 3 5 5 4 4 5 4 4 4 4 5 4 5 5 3 3 4 3 3 4 2 2 6
12 13 9 11 11 7 7 5 3 4 5 2 6 4 5 5 5 4 4 5 4 5 5 5 4 5 3 3 3 4 4 6
13 12 10 12 12 8 3 3 2 2 6 7 4 4 6 5 4 4 4 3 6 4 4 3 4 3 6 3 4 3 4 4
13 12 11 12 11 8 7 9 9 9 6 5 5 5 6 5 4 3 4 3 4 3 3 3 3 4 3 4 3 4 4 1
14 15 15 15 12 12 11 8 6 6 5 7 9 6 6 4 4 3 4 4 3 4 4 3 3 4 5 4 2 2 5 4
15 15 17 15 11 8 7 9 9 7 5 6 8 6 7 5 5 6 6 4 4 2 4 3 3 4 2 5 5 3 3 3
19 16 16 12 10 9 8 6 6 4 5 9 10 8 8 6 5 5 5 5 6 6 3 4 1 2 2 2 3 5 2 2
19 18 16 13 10 10 9 9 10 9 8 8 8 8 10 8 7 6 7 4 6 6 5 3 3 4 2 1 1 1 4 5
18 20 19 17 18 10 7 7 5 7 8 7 7 9 9 8 8 6 8 6 5 6 6 7 4 3 4 1 0 3 2 3
21 17 19 17 15 11 12 7 7 6 8 8 7 7 8 10 9 7 7 5 5 7 7 5 4 5 3 3 2 3 1 4
14 12 13 12 14 7 9 7 7 6 6 11 8 6 6 8 5 6 6 6 6 7 6 7 4 4 3 3 2 1 5 4
17 16 14 11 14 13 9 12 8 6 7 8 8 8 7 7 5 5 5 6 6 4 4 7 6 5 4 4 3 2 2 2
15 17 17 14 16 15 14 10 12 7 7 9 10 6 6 9 7 7 6 5 5 3 6 4 6 6 5 3 1 2 4 2
18 18 18 16 14 15 14 14 8 9 7 8 8 8 7 7 7 7 6 5 4 6 2 6 5 6 7 4 1 3 5 2
Wind_Direction
134 153 262 132 114 118 118 119 119 117 114 111 110 110 108 109 112 113 114 115 110 106 103 93 86 65 24 1 351 351 339 90
157 112 98 52 94 82 81 89 95 103 107 104 103 104 104 108 111 113 117 113 110 110 104 96 83 68 14 338 339 321 63 83
122 95 103 111 94 97 89 91 89 94 105 112 109 116 113 103 107 110 115 110 116 119 119 113 119 147 234 286 314 14 64 87
107 106 104 109 112 91 106 108 105 118 132 130 116 126 110 104 104 110 104 115 124 129 140 142 159 182 218 352 28 355 80 91
109 117 108 114 101 110 88 98 99 142 154 109 115 104 110 106 113 113 120 124 123 136 139 139 193 60 50 32 11 360 66 88
103 115 117 116 118 137 150 154 149 177 108 122 104 91 126 127 147 150 157 137 166 161 109 96 77 80 83 77 21 14 64 102
122 116 103 108 98 113 109 90 102 85 69 77 105 166 112 167 155 163 176 146 189 114 106 136 132 135 101 109 142 135 360 115
105 110 83 87 92 95 89 67 61 54 44 212 195 151 146 196 157 177 184 145 169 126 163 159 180 123 115 62 28 52 52 89
113 117 110 113 114 108 123 164 97 63 215 217 197 175 189 162 157 179 132 164 142 152 156 160 147 135 128 172 146 106 77 31
136 140 144 139 142 157 175 195 184 199 194 177 184 215 193 165 157 158 148 148 129 127 176 180 157 173 166 176 120 112 102 96
146 160 168 169 180 180 198 200 201 202 189 173 190 167 199 142 133 152 175 139 157 175 208 159 172 208 168 136 109 150 150 208
166 167 171 176 186 210 219 217 202 197 178 155 156 181 169 194 171 191 173 168 160 175 181 207 160 214 243 145 160 199 181 181
175 176 184 190 199 201 200 168 199 190 177 179 174 184 173 187 223 161 157 180 182 185 164 164 244 87 357 265 207 184 196 211
187 191 187 190 194 201 186 189 199 197 186 159 166 184 183 194 218 166 170 206 185 157 162 163 218 159 207 233 306 146 212 204
195 189 183 188 201 197 183 184 187 193 156 170 179 191 191 194 204 180 174 213 176 162 174 186 198 144 186 150 132 215 62 234
205 196 182 191 204 184 179 187 201 190 167 174 176 178 207 197 197 195 174 192 182 179 180 190 204 165 132 160 89 79 288 323
205 211 201 191 190 189 172 186 192 202 191 156 172 175 205 220 198 191 195 180 187 182 189 190 177 129 143 126 88 209 214 201
191 201 206 198 180 190 185 190 211 203 161 168 182 187 171 208 194 205 195 207 171 181 220 166 136 97 114 121 160 218 244 230
193 194 209 209 179 190 200 196 197 221 188 174 179 181 181 191 185 210 216 198 175 189 153 103 125 125 129 149 114 263 278 290
193 197 206 210 199 192 194 204 199 205 207 175 181 185 173 167 187 208 214 174 161 132 88 120 122 120 134 122 135 284 294 261